Location: B?jaj?g
(11.7167°N, 92.6667°E)
Time: 02:18:08
(UTC+00:00)

Cosmos 2322 Rocket - Pass Details

Date: 18 September 2020
Orbit: 831 x 852 km, 71.0° (Epoch: 30 October)

Event Time Altitude Azimuth Distance (km) Brightness Sun altitude
Exits shadow 21:28:45 54° 68° (ENE) 1,006 2.7 -32.5°
Drops below altitude 10° 21:33:29 10° 26° (NNE) 2,455 5.0 -31.3°
Sets 21:35:58 0° 22° (NNE) 3,393 5.7 -30.7°
